Regional Weather Roundup
Issued by NWS Grand Forks, ND

Home | Current Version | Previous Version | Graphics & Text | Print | Product List | Glossary On
Versions: 1 2 3 4 5 6 7 8 9 10 11 12 13 14 15 16 17 18 19 20 21 22 23 24 25 26 27 28 29 30 31 32 33 34 35 36 37 38 39 40 41 42 43 44 45 46 47 48 49 50
000
ASUS43 KFGF 191310
RWRFGF
PRAIRIE TO PINES  WEATHER ROUNDUP
NATIONAL WEATHER SERVICE EASTERN NORTH DAKOTA/GRAND FORKS ND
800 AM CDT SAT AUG 19 2017

 **SATELLITE DATA USED TO AUGMENT SKY COVER AT AUTOMATED STATIONS**
 *****  WEATHER ACROSS EASTERN NORTH DAKOTA  *****

CITY           SKY/WX    TMP DP  RH WIND       PRES   REMARKS
GRAND FORKS    FAIR      60  57  89 SW7       29.83S
GRAND FRKS AFB FAIR      62  55  79 SW6       29.84S
DEVILS LAKE    FAIR      66  56  70 SW14      29.83
FARGO          FAIR      61  59  93 S6        29.88S
WAHPETON ARPT  FAIR      55  54  94 SE3       29.92S
$$

 ***** WEATHER ACROSS CENTRAL AND WESTERN NORTH DAKOTA  *****

CITY           SKY/WX    TMP DP  RH WIND       PRES   REMARKS
BISMARCK       FAIR      61  58  90 SE6       29.84F
MINOT          FAIR      68  54  60 CALM      29.76S
JAMESTOWN      FAIR      60  56  86 S3        29.86F
MINOT AFB      FAIR      66  54  66 S12       29.74S
GARRISON         N/A     61  55  81 E5        29.79F
WILLISTON      FAIR      63  52  67 S5        29.74S
DICKINSON      FAIR      59  52  77 S9        29.79S
HETTINGER      FAIR      59  52  77 SE7       29.85F
$$

 *****  OTHER AIRPORT OBSERVATIONS IN OUR AREA  *****

CITY           SKY/WX    TMP DP  RH WIND       PRES   REMARKS
WALHALLA       FAIR      66  66 100 SW6       29.79F
GRAFTON AIRPOR FAIR      57  57 100 S5        29.84S
VALLEY CITY AR   N/A     57  57 100 S5        29.89F
CANDO          FAIR      57  57 100 CALM      29.83F
CAVALIER APRT  FAIR      61  55  82 S5        29.80S
GWINNER        SUNNY     57  57 100 SW8       29.91S
SHEYENNE NWR     N/A     59  59 100 SW5       29.95
ROLLA          FAIR      61  55  82 SW10      29.81F
 ***** THE ABOVE OBSERVATIONS ARE NON NWS ARE NOT QUALITY
       CONTROLLED AND MAY MIS-REPORT RAIN FOR SNOW...
$$

  *****  WEATHER ACROSS NORTHERN MINNESOTA  *****

CITY           SKY/WX    TMP DP  RH WIND       PRES   REMARKS
FLAG ISLAND    FAIR      63  55  77 CALM      29.82R
WARROAD        FAIR      59  55  88 SW6       29.84S
ROSEAU         FAIR      59  54  82 SW3       29.84S
HALLOCK        FAIR      57  55  94 S6        29.82S
THF RVR FALLS  FAIR      58  56  93 S5        29.88R
BAUDETTE       FAIR      57  56  96 S3        29.84S
WASKISH        FAIR      63  61  94 SW3       29.87S
CROOKSTON      FAIR      57  57 100 S5        29.87R
STEPHEN NDAWN    N/A     59  55  88 SE5         N/A
GREENBUSH NDAW   N/A     59  55  88 S5          N/A
$$
  *****  WEATHER ACROSS CENTRAL AND WEST MINNESOTA  *****

CITY           SKY/WX    TMP DP  RH WIND       PRES   REMARKS
FOSSTON        FAIR      59  57  94 S6        29.90S FOG
BEMIDJI        FAIR      60  58  92 SW3       29.90S
PARK RAPIDS    FAIR      57  57 100 CALM      29.92R
ELBOW LAKE     FAIR      57  57 100 CALM      29.95R FOG
WADENA         FAIR      59  59 100 SW3       29.93R
DETROIT LAKES  FAIR      61  59  94 S3        29.93S
MOORHEAD       FAIR      57  55  94 SE5       29.90S
FERGUS FALLS   FAIR      59  59 100 SE5       29.93S
MORRIS MN      FAIR      57  55  94 CALM      29.94R
STAPLES        FAIR      57  55  94 CALM      29.93S
$$
  *****  WEATHER ELSEWHERE ACROSS MINNESOTA  *****

CITY           SKY/WX    TMP DP  RH WIND       PRES   REMARKS
DULUTH         FAIR      62  60  93 NW7       29.90R
INTRNTL FALLS  FAIR      58  56  93 VRB3      29.86S
ELY            FAIR      55  55 100 CALM      29.89R
CLOQUET        FAIR      61  57  88 W6        29.91S
WHEATON        FAIR      59  55  88 S3        29.95S
BRAINERD       FAIR      58  57  97 CALM      29.93R FOG
HIBBING        FAIR      53  53 100 CALM      29.90R
ALEXANDRIA     FAIR      61  60  97 SW3       29.96R
SAINT CLOUD    FAIR      57  57 100 CALM      29.95R FOG
MINNEAPOLIS    FAIR      62  59  90 S6        29.95R FOG
$$

  *****  WEATHER ACROSS SOUTH DAKOTA  *****

CITY           SKY/WX    TMP DP  RH WIND       PRES   REMARKS
SIOUX FALLS    FAIR      60  59  96 CALM      29.98R
BROOKINGS      FAIR      56  55  97 CALM      29.98R
WATERTOWN      FAIR      54  54 100 CALM      29.95S
HURON          FAIR      58  56  93 SE6       29.93S
SISSETON         N/A     63  60  90 CALM      29.91S
ABERDEEN       FAIR      54  54 100 S7        29.92S
MITCHELL       FAIR      58  57  97 SE3       29.95S
PIERRE         FAIR      61  57  87 SE8       29.88S
MOBRIDGE       FAIR      64  60  87 SE12      29.84F
RAPID CITY     FAIR      58  51  78 SE5       29.89S
$$

  *****  SOME WEATHER IN NEARBY STATES *****

CITY           SKY/WX    TMP DP  RH WIND       PRES   REMARKS
GLASGOW MT     FAIR      58  39  49 W6        29.77R
GREAT FALLS MT FAIR      57  42  57 N14       30.00R
CHEYENNE WY    FAIR      61  36  39 W13       30.15R
SCOTTSBLUFF NE FAIR      60  53  77 E6        29.98R
OMAHA NE       FAIR      63  58  83 NW3       29.98R
DES MOINES IA  PTSUNNY   67  62  84 CALM      29.94R
DAVENPORT IA   FAIR      65  61  87 CALM      29.98R
CHICAGO IL     FAIR      68  61  78 N5        29.96R
EAU CLAIRE WI  FAIR      60  60 100 SW3       29.94R FOG
LA CROSSE WI   FOG       60  59  96 SE3       29.95R VSB 1/4
$$

  *****  SOME NATIONAL WEATHER *****

CITY           SKY/WX    TMP DP  RH WIND       PRES   REMARKS
LA GUARDIA NY  FAIR      79  67  66 NW8       29.84R
RALEIGH NC     FAIR      80  73  79 NW5       29.96R
ATLANTA GA     FAIR      75  66  73 W3        30.03R
NEW ORLEANS LA FAIR      82  78  88 W8        30.00F HX  91
OKLAHOMA CITY  FAIR      73  73 100 S5        30.01R
ALBUQUERQUE NM MOCLDY    70  51  51 SE5       30.20R
SALT LAKE CITY FAIR      65  43  44 SE8       30.06R
LOS ANGELES CA CLOUDY    67  63  87 W3        29.95R
BOISE ID       FAIR      60  31  33 E5        30.01R
SEATTLE WA     MOCLDY    60  50  69 N7        30.18R
$$

*** WEATHER ACROSS MANITOBA...SASKATCHEWAN AND ONTARIO ***
                ***ONTARIO***

CITY           SKY/WX    TMP DP  RH WIND       PRES   REMARKS
GERALDTON      MOSUNNY   57  57 100 SW5       29.77S
THUNDER BAY    SUNNY     61  61 100 W6        29.82R
SIOUX LOOKOUT  SUNNY     61  59  94 CALM      29.81R
TORONTO        MOSUNNY   68  61  77 W10       29.82S
BIG TROUT LK   PTSUNNY   63  57  82 W7        29.66R
PICKLE LAKE    MOSUNNY   63  54  72 W7        29.76S
DRYDEN         SUNNY     63  57  82 S6        29.83R
KENORA         SUNNY     66  59  77 SW5       29.83R
$$
                *** MANITOBA***

CITY           SKY/WX    TMP DP  RH WIND       PRES   REMARKS
BRANDON        PTSUNNY   54  50  87 NE3       29.75F
DAUPHIN        SUNNY     55  52  88 E2        29.68F
ISLAND LAKE    MOSUNNY   64  57  77 SW2       29.67S
PILOT MOUND      N/A     55  54  94 S7          N/A
THE PAS        MOSUNNY   59  54  82 SE6       29.62F
THOMPSON       MOSUNNY   57  57 100 E3        29.64S
WINNIPEG       MOSUNNY   61  54  77 S6        29.78S
LYNN LAKE      MOSUNNY   55  55 100 MISG      29.60F
CHURCHILL      CLOUDY    52  50  93 N12       29.65S
GILLAM         PTSUNNY   55  55 100 CALM      29.66R FOG
$$
                ***SASKATCHEWAN***

CITY           SKY/WX    TMP DP  RH WIND       PRES   REMARKS
ESTEVAN        PTSUNNY   68  52  56 S12       29.70S
KINDERSLEY     PTCLDY    52  46  82 NW12G20   29.83R
LLOYDMINSTER   CLOUDY    50  46  87 NW16G22   29.80S
PRINCE ALBERT  MOCLDY    61  55  82 N14G20    29.64R
REGINA         PTCLDY    59  48  67 SE7       29.65R
YORKTON        MOSUNNY   61  52  72 SE13G18   29.62F
N. BATTLEFORD  MOCLDY    54  50  87 NW14G20   29.78R
LA RONGE       LGT RAIN  55  55 100 VRB2      29.65S
SASKATOON      MOCLDY    59  50  72 NW18G29   29.69R
SWIFT CURRENT  CLEAR     54  45  71 NW21G26   29.82R
$$
NOTE: THESE ARE AUTOMATED STATIONS WITH LIMITED QUALITY CONTROL
      "FAIR" INDICATES FEW OR NO CLOUDS BELOW 12,000 FEET WITH NO
      SIGNIFICANT WEATHER AND/OR OBSTRUCTIONS TO VISIBILITY.
      SKY/WX - SKY CONDITION AND SIGNIFICANT WEATHER.
      TMP - AIR TEMPERATURE.    DP   - DEWPOINT TEMPERATURE.
      RH  - RELATIVE HUMIDITY.  PRES - PRESSURE.
      HX  - HEAT INDEX.         WCI  - WIND CHILL INDEX.
$




USA.gov is the U.S. government's official web portal to all federal, state and local government web resources and services.